Theta_e
311 311 311 311 311 311 311 311 311 311 312 313 314 314 315 316 316 316 316 315 315 316 317 318 317 316 315 315 315 315 314 314 313 314 314 314 315 315 317 318 318 318 318 318 317 316 315 315 315 314 315 317 318 318 317 317 317 318 320 319 318 319 319 318 318 317 317 317 315 312 311 314 314 311 310 310 311 310 310 310 311 312 312 312 312 311 310 310
311 311 311 311 311 311 310 310 310 310 311 311 311 312 313 314 315 316 316 315 315 315 316 316 317 317 316 316 315 314 314 314 314 314 314 315 315 315 317 319 319 318 318 318 318 317 316 315 315 314 315 317 318 318 318 317 316 318 319 318 318 319 318 317 317 317 316 316 315 313 311 313 314 312 310 311 312 310 310 311 310 310 311 312 312 311 310 310
311 311 311 311 310 311 310 310 310 310 310 310 310 310 311 312 313 314 315 315 315 315 315 315 316 317 317 316 316 315 315 315 315 315 315 315 315 315 317 319 319 318 318 318 319 319 318 317 317 315 316 318 317 318 319 317 317 317 317 318 319 319 317 315 315 315 315 314 314 313 311 311 313 312 310 312 313 311 311 313 311 310 311 312 312 311 310 309
311 311 311 311 311 310 310 310 310 310 310 310 310 310 310 310 311 312 313 314 314 314 315 314 314 316 317 317 316 315 315 316 316 316 315 315 315 316 317 319 319 318 318 318 319 319 319 319 316 315 316 318 317 317 318 316 317 317 316 318 318 315 316 315 314 314 313 313 313 313 311 310 311 310 310 312 313 313 313 314 313 313 313 313 313 312 310 309
311 311 311 310 310 310 310 310 310 310 310 310 310 310 310 310 310 311 311 312 313 313 314 314 314 315 317 318 317 316 315 317 318 316 315 315 316 317 317 318 319 318 318 317 318 319 320 319 315 314 316 317 317 317 317 314 315 316 316 315 315 313 315 314 313 313 312 311 312 311 311 312 311 310 310 311 313 315 315 314 314 314 314 313 313 312 310 309
311 311 311 311 311 310 311 310 310 310 310 310 310 310 310 310 310 310 310 311 311 312 312 312 314 314 315 317 317 317 316 318 318 317 315 315 315 317 317 317 318 318 318 317 318 318 319 319 316 315 316 317 317 317 315 313 313 316 316 313 312 313 314 314 312 312 311 310 311 312 312 312 311 311 311 311 313 315 315 314 314 314 313 313 312 312 310 310
311 311 311 311 311 311 311 310 310 310 310 310 310 310 310 310 310 310 310 310 310 310 311 311 312 313 314 316 317 317 316 317 318 317 316 315 315 316 317 317 317 318 318 317 317 318 319 319 317 316 317 317 316 315 314 312 312 315 316 313 313 312 313 313 312 311 311 310 311 311 311 311 311 312 310 310 313 314 314 314 314 313 312 312 312 311 311 310
311 311 311 311 311 311 311 311 311 311 310 310 310 310 310 310 310 310 310 310 310 310 310 310 310 312 314 315 316 317 317 317 317 317 317 317 315 315 316 317 317 317 318 317 317 317 318 319 318 316 317 317 315 315 313 312 313 313 315 314 313 312 312 313 311 311 311 310 311 309 311 312 312 311 309 310 313 313 313 313 313 312 311 311 312 311 311 310
311 311 311 311 311 311 311 311 311 311 311 311 310 310 310 310 310 310 310 310 310 310 310 310 310 311 313 314 315 317 317 316 316 318 318 318 316 315 315 316 316 316 317 317 317 317 318 319 318 316 317 315 315 315 312 313 315 314 314 313 313 313 312 312 312 311 311 310 310 309 312 312 310 309 310 312 313 313 313 312 312 312 311 311 311 311 311 310
311 311 311 311 311 312 312 312 312 312 312 312 311 311 311 311 311 310 311 311 310 310 310 310 310 310 312 314 316 317 315 315 316 317 318 318 316 315 315 315 316 316 316 316 316 317 317 318 318 317 316 315 314 314 312 313 314 312 312 312 312 312 311 311 311 311 310 310 310 310 313 312 309 309 313 314 313 312 312 311 311 311 311 311 310 310 310 310
311 312 312 312 312 311 312 312 312 312 313 313 313 312 312 312 312 312 311 311 311 311 311 311 310 310 311 314 316 317 314 315 315 316 318 317 316 314 314 315 315 315 315 316 316 316 317 317 318 317 316 315 314 313 311 312 312 310 310 311 311 311 311 310 310 310 310 311 310 310 311 311 308 309 313 314 312 312 311 311 311 311 311 310 310 310 309 309
312 312 312 312 312 312 312 311 312 312 313 314 314 314 313 313 313 313 313 312 312 312 311 311 311 310 311 313 315 315 314 314 315 315 316 317 317 315 314 313 314 315 315 315 315 316 316 316 317 317 316 315 314 313 312 311 310 310 310 312 313 312 313 311 309 309 309 311 310 309 311 311 309 310 313 313 312 311 310 310 310 310 310 310 310 309 309 309
312 312 312 312 312 312 312 312 312 312 313 313 314 314 314 314 314 314 314 313 313 313 312 311 311 310 311 314 314 314 314 314 315 315 316 316 317 316 315 314 314 314 314 315 315 315 316 316 316 316 315 314 313 312 311 309 309 310 310 311 314 314 315 311 308 308 309 310 309 310 314 315 313 313 314 313 312 311 309 309 310 310 310 309 309 309 309 309
311 312 312 313 313 313 312 312 313 313 313 313 313 313 314 314 314 314 314 314 313 313 312 311 311 311 312 313 313 313 313 314 314 315 316 316 316 317 316 314 313 314 314 314 315 315 315 315 315 316 315 313 312 311 311 310 309 311 311 311 314 315 315 312 308 309 310 310 308 310 314 316 316 315 315 314 312 311 309 309 310 310 310 310 310 309 309 309
312 312 312 313 313 314 314 313 314 314 314 314 314 313 313 313 313 313 313 313 313 312 312 311 311 312 312 313 312 312 313 313 314 315 316 316 316 316 315 314 313 313 314 314 314 314 314 315 314 315 313 312 311 312 313 313 311 311 312 314 315 314 315 314 309 309 311 310 307 311 314 316 317 316 315 314 313 310 308 309 310 310 311 310 310 309 309 309
312 313 313 313 313 314 314 314 314 314 314 315 314 314 313 313 312 312 312 312 312 312 312 311 311 312 313 313 313 314 314 314 315 315 316 316 316 315 314 313 313 313 313 314 314 314 314 314 314 313 312 312 312 314 316 316 314 314 313 315 317 315 315 314 310 307 309 310 308 310 313 315 316 314 313 313 312 310 308 309 309 310 311 310 310 310 309 308
314 313 313 313 313 313 313 313 314 314 314 315 314 314 313 313 313 312 312 312 311 311 311 312 313 313 314 314 314 314 315 315 315 316 316 316 315 315 313 313 313 313 313 313 314 314 314 314 313 313 312 311 312 314 316 316 316 316 314 314 316 315 314 314 312 307 306 309 310 310 311 313 314 313 312 311 311 310 308 309 310 310 310 310 310 310 309 308
313 314 314 314 314 314 314 314 314 314 314 314 314 314 314 313 313 312 312 311 311 311 313 314 314 314 314 314 314 314 315 316 316 316 316 315 315 314 313 313 313 313 313 313 313 314 314 314 313 315 314 311 311 315 316 316 317 316 315 314 315 314 313 314 313 309 307 308 310 311 310 311 313 313 313 312 310 309 308 310 310 310 309 309 309 309 308 307
309 310 311 312 313 313 314 314 314 314 314 314 314 314 313 313 312 312 311 311 312 313 315 315 315 314 314 314 314 314 314 315 314 314 314 314 314 313 313 312 312 313 313 314 315 314 314 315 315 316 317 315 314 316 317 318 317 315 316 315 315 315 314 314 313 307 306 308 309 311 311 311 312 312 313 313 311 308 308 309 310 309 309 308 308 308 307 306
308 308 308 309 309 310 310 310 311 312 312 313 313 313 313 311 311 312 311 311 312 313 313 314 314 313 313 313 313 313 313 313 313 313 314 314 314 313 313 312 313 313 313 316 317 314 313 316 317 317 318 317 316 315 316 316 314 314 316 315 315 316 315 315 312 305 304 308 310 311 311 311 312 311 312 313 311 309 309 310 309 309 309 308 308 307 306 306
310 309 308 309 309 308 308 308 309 309 309 309 309 310 311 310 310 311 310 311 312 312 312 312 312 312 312 312 313 313 313 313 313 313 313 314 314 313 313 313 313 314 313 314 315 312 313 316 318 318 317 316 315 313 313 312 311 312 314 315 315 315 315 314 310 305 304 307 310 311 310 310 311 311 312 312 310 310 311 311 311 311 310 309 308 307 306 306
311 310 310 310 310 309 309 309 309 309 308 308 307 308 310 309 310 310 309 311 312 311 311 311 311 311 311 311 312 312 312 312 312 312 313 313 313 313 313 313 313 314 313 312 314 314 314 317 317 316 314 312 311 309 309 310 311 312 313 314 315 315 314 312 309 304 304 307 310 311 309 310 311 311 312 312 312 312 312 312 312 312 312 311 310 308 307 306
311 311 311 311 311 310 309 310 309 309 309 308 306 307 309 308 309 309 309 311 312 311 310 310 310 311 311 311 311 310 311 312 311 311 312 312 313 313 312 312 312 314 313 312 315 316 316 316 314 312 311 311 309 306 308 310 311 312 313 314 315 315 315 313 310 305 305 307 308 309 308 310 311 311 311 312 312 311 311 311 311 311 312 312 311 309 308 307
312 311 311 311 311 310 309 309 309 309 309 307 306 307 308 308 309 309 311 311 311 311 310 311 311 310 311 311 311 311 310 311 311 311 312 312 312 312 312 313 312 313 313 313 314 316 317 313 307 307 309 312 311 307 308 311 312 313 313 314 315 316 314 313 310 307 308 307 305 308 310 312 313 313 313 312 309 308 308 308 309 310 312 311 310 309 308 308
312 312 312 311 311 310 310 309 309 309 308 306 306 307 308 309 310 310 311 312 312 311 310 311 311 311 311 312 312 311 311 311 311 311 311 312 312 312 312 312 312 313 313 313 313 315 316 310 307 310 310 311 313 310 310 313 314 314 314 314 314 314 313 312 310 309 311 312 307 308 311 313 315 315 315 313 310 309 308 308 309 310 311 311 308 308 308 309
313 313 312 312 312 311 310 309 309 309 308 308 307 308 309 309 311 312 311 311 312 312 311 311 312 313 312 312 312 311 312 312 311 311 312 312 312 312 312 311 311 312 313 312 312 314 313 306 307 314 312 312 314 313 313 313 314 315 314 314 312 312 313 312 310 310 313 314 308 308 312 314 314 312 314 315 313 313 313 312 312 311 311 311 309 308 309 310
314 314 313 313 312 312 310 308 309 309 309 310 309 309 309 310 312 312 309 309 311 313 313 311 313 314 313 312 312 312 313 313 311 311 311 311 311 311 312 312 310 310 309 311 314 314 312 307 308 312 313 314 313 314 314 311 313 315 312 311 311 310 311 311 311 311 312 312 309 309 311 312 313 312 313 314 314 313 313 314 314 314 313 312 310 309 309 310
313 313 313 313 313 313 310 308 308 308 309 310 310 309 310 311 311 310 307 308 311 314 314 312 312 313 312 312 311 311 311 311 312 311 310 310 311 310 311 312 312 311 307 311 316 313 311 312 311 311 312 312 313 315 314 312 314 314 307 306 308 309 310 310 310 311 310 309 310 311 311 312 314 313 311 312 312 312 313 313 314 315 315 313 311 310 310 311
311 312 313 313 312 313 311 307 306 307 309 311 310 310 311 310 310 308 307 309 312 315 313 312 312 312 312 312 311 310 309 310 311 310 309 310 310 309 310 310 311 311 307 309 316 315 310 309 309 311 313 313 313 310 308 313 314 308 304 306 307 306 307 308 309 310 309 309 312 313 311 311 313 313 310 309 311 312 313 314 314 315 315 312 311 311 312 312
312 312 313 312 312 312 311 308 306 306 309 311 311 310 310 309 309 309 309 310 313 314 311 311 312 312 312 312 312 310 309 309 308 308 308 309 309 308 309 309 309 311 310 308 313 313 307 303 305 310 311 310 309 303 302 308 308 305 306 309 309 307 306 306 308 309 310 312 314 313 312 311 312 314 312 311 311 313 314 314 314 315 313 312 312 312 313 313
313 313 313 313 312 312 311 309 307 306 308 311 311 309 310 309 309 310 311 311 311 312 312 312 312 312 312 314 316 312 310 310 307 307 308 307 308 308 308 310 310 311 312 311 312 312 308 306 307 309 306 305 307 305 302 302 303 305 309 310 312 311 308 308 308 308 311 314 312 310 312 312 312 313 313 312 312 312 314 314 314 315 314 312 313 313 313 313
316 314 314 313 313 312 311 309 308 306 307 311 311 308 310 310 309 310 309 308 311 313 315 316 313 312 313 315 317 313 311 312 308 307 309 309 309 309 310 313 313 314 314 314 314 314 312 311 310 308 305 305 310 310 305 303 303 307 310 311 314 315 313 313 312 310 312 315 310 306 309 311 311 313 312 311 311 311 312 313 314 316 315 313 313 313 313 313
318 316 314 314 314 313 311 309 307 306 308 311 309 308 310 310 311 312 309 309 313 314 314 316 314 313 313 314 316 313 312 313 308 306 309 310 310 310 312 313 314 315 315 313 314 314 314 313 309 309 308 306 311 312 311 309 306 307 311 312 315 316 315 316 314 311 312 314 309 304 307 310 310 311 312 311 311 312 311 311 313 313 313 313 313 313 313 312
321 318 316 315 315 314 312 310 307 306 309 310 308 308 310 310 311 314 313 311 313 312 312 314 313 312 313 314 315 313 313 315 310 307 309 309 309 310 312 311 311 313 313 312 313 313 315 315 311 311 311 309 310 312 315 313 307 308 311 312 314 315 315 314 313 311 312 313 309 304 307 311 311 311 313 312 312 313 312 311 310 310 311 312 311 311 311 311
322 320 317 315 315 315 314 311 307 307 310 309 308 309 310 310 310 312 313 311 312 313 312 311 313 314 314 313 313 312 314 315 311 308 309 309 310 311 312 312 310 311 313 313 313 312 313 316 314 310 308 308 310 311 312 312 310 308 309 311 313 314 313 312 312 311 311 312 310 308 309 312 311 310 310 311 312 312 311 311 309 308 310 310 308 309 310 310
323 321 318 315 315 316 316 312 307 307 310 309 309 310 310 310 311 313 312 309 311 315 312 311 313 314 313 313 313 312 313 312 311 310 310 310 311 312 312 313 311 310 313 315 315 314 313 314 312 306 305 305 304 306 308 310 312 309 308 310 311 310 311 312 312 309 308 310 313 311 311 312 312 311 309 310 312 311 310 309 309 308 309 308 307 308 310 310
323 320 317 316 316 316 316 312 308 308 309 309 309 310 311 311 311 312 311 307 309 313 313 313 313 314 314 313 314 314 313 311 310 311 312 311 312 313 312 313 312 310 312 314 316 317 315 315 311 307 308 303 298 302 305 305 307 308 309 311 310 309 310 310 312 311 310 312 314 313 312 312 312 312 309 309 311 311 309 309 309 308 307 308 308 309 310 310
323 320 318 317 316 316 316 312 309 309 308 308 309 311 312 311 307 307 308 307 309 313 314 313 312 314 315 314 313 314 312 313 311 311 313 312 313 314 313 313 312 310 311 312 316 318 316 315 313 305 306 303 298 303 308 304 303 305 306 307 308 310 311 310 310 312 313 313 313 314 313 312 313 313 310 310 310 310 308 308 308 307 307 307 307 308 309 310
321 318 317 317 316 316 315 311 309 309 308 308 310 311 312 311 306 305 307 309 310 312 312 312 311 313 314 314 314 313 312 314 313 311 312 313 313 313 312 314 314 311 310 311 313 316 314 314 315 304 301 304 302 305 310 307 304 303 304 305 306 309 311 311 310 311 312 313 313 314 314 314 314 314 313 313 312 310 310 309 308 307 307 307 307 308 310 310
319 316 316 316 316 316 314 310 309 309 308 309 310 310 311 311 308 307 307 308 310 310 310 312 312 311 312 314 314 313 312 313 313 312 312 312 313 313 311 313 316 312 309 310 313 315 313 314 315 306 300 305 306 307 310 311 308 304 306 307 306 306 308 308 309 309 310 312 312 312 314 314 313 313 313 312 311 312 311 311 310 309 308 308 308 309 310 311
317 315 315 315 315 315 312 309 309 309 309 310 310 310 311 309 308 308 307 307 308 308 308 311 312 310 311 312 311 311 311 312 312 311 312 311 312 313 311 312 315 312 308 309 311 313 314 314 315 311 307 308 310 309 308 311 311 308 307 308 308 308 308 309 310 309 308 310 312 312 313 313 312 312 312 311 312 312 312 311 311 309 307 308 308 310 310 310
316 315 315 314 314 314 310 309 310 309 310 311 310 310 310 308 308 308 307 307 307 306 307 309 311 310 310 311 311 312 312 313 313 311 311 313 312 312 312 310 311 310 309 310 311 311 314 316 315 314 314 311 308 304 301 305 310 309 308 309 309 309 309 311 313 311 308 309 310 309 310 312 313 313 312 312 312 311 310 310 311 309 307 309 310 310 310 311
315 315 314 313 313 313 310 309 310 309 310 311 311 311 310 309 309 309 308 307 307 307 308 309 309 309 309 311 312 312 311 312 315 313 312 314 313 311 310 309 309 310 311 311 312 310 312 315 314 313 315 312 305 300 299 301 306 308 307 308 308 309 310 311 310 310 310 310 309 308 309 311 313 314 314 313 312 309 307 308 309 309 308 309 310 310 310 311
315 314 312 312 312 312 311 310 311 310 309 310 311 311 310 310 310 310 309 308 308 308 309 309 308 308 309 311 310 310 310 310 313 314 312 314 313 309 308 308 309 311 312 311 312 311 311 314 314 313 315 314 310 306 304 302 304 306 307 306 308 309 309 309 307 306 308 311 310 310 310 311 312 313 313 311 310 309 307 305 306 307 308 309 309 310 310 310
315 313 310 310 311 310 311 312 312 311 310 310 311 311 311 311 311 310 310 309 307 307 308 308 307 306 308 310 309 309 310 309 310 312 311 312 310 306 305 307 309 310 311 310 310 311 313 314 313 313 314 314 313 312 311 307 305 306 306 305 307 308 308 309 308 308 310 310 310 310 311 311 311 313 312 310 308 308 306 303 303 304 307 308 309 310 310 310
315 313 310 308 309 310 310 311 311 311 311 311 311 311 311 311 311 310 311 311 309 307 307 307 307 307 308 309 308 308 309 310 310 310 309 310 310 306 303 304 308 309 309 309 308 311 315 315 312 313 313 312 312 312 313 311 307 306 306 305 306 308 308 309 309 310 310 310 310 311 311 311 311 311 311 311 310 308 307 306 305 304 305 307 308 308 308 308
315 314 311 308 309 309 309 309 309 310 311 311 311 312 312 312 311 310 310 311 311 309 308 308 307 308 309 308 308 308 309 309 310 308 308 309 309 307 303 302 305 306 306 306 307 311 315 314 312 313 312 311 312 311 312 312 309 308 308 307 306 307 308 310 310 310 310 309 310 311 311 311 311 310 310 311 310 310 309 309 309 308 307 306 306 307 307 307
314 314 312 311 312 311 308 309 309 309 310 311 311 312 313 313 312 311 311 311 311 310 310 311 309 308 309 309 309 309 309 309 309 308 309 308 308 308 306 304 305 304 305 306 306 308 312 312 312 313 313 312 312 311 312 312 309 308 309 309 307 307 308 309 309 309 310 310 310 311 311 311 311 310 310 310 310 310 309 309 309 309 308 307 306 306 306 306
313 315 313 312 313 313 310 309 309 309 309 310 310 311 312 313 313 312 312 311 310 310 310 312 311 310 309 309 310 310 309 309 310 309 309 308 309 309 308 308 305 302 304 307 307 307 309 311 311 312 311 311 312 312 312 311 310 309 309 309 308 308 307 308 308 308 309 310 310 311 311 311 310 310 310 310 310 310 309 309 309 309 308 308 307 307 307 306
311 314 313 311 312 312 311 310 310 310 309 309 310 310 311 312 312 312 312 312 311 311 310 311 312 311 311 311 310 309 309 309 309 310 310 310 310 309 308 310 309 304 304 307 308 307 308 310 311 310 311 311 311 311 311 311 310 310 309 309 309 308 308 308 308 308 308 308 309 309 309 309 309 309 309 309 309 309 309 309 309 309 309 308 308 308 308 307
308 309 310 310 311 311 310 310 311 311 310 309 309 310 310 311 311 312 312 311 312 312 311 311 311 311 312 311 309 309 309 309 309 309 309 310 310 309 309 311 311 309 306 307 307 306 307 309 310 309 310 311 311 311 311 310 310 309 309 309 308 308 308 308 308 308 308 307 307 308 308 308 308 308 308 308 309 308 308 309 309 309 309 309 308 308 308 307
305 306 307 307 308 310 311 310 310 311 310 310 309 309 310 311 310 311 312 311 311 311 311 311 311 311 312 311 310 309 309 309 309 309 309 309 309 308 308 309 309 309 308 307 307 306 307 308 309 309 310 310 311 311 310 310 310 310 309 309 309 309 309 309 309 309 308 308 308 308 309 308 308 309 308 308 309 309 309 309 310 310 309 309 308 308 307 308
Wind_Speed
7 8 8 9 9 9 10 10 11 11 11 10 10 11 11 11 11 11 11 11 9 8 6 3 1 4 4 4 5 5 5 5 5 6 6 4 5 5 4 4 3 4 4 4 3 2 2 3 4 5 6 5 5 4 2 3 5 4 2 3 3 2 2 3 6 4 1 0 5 10 13 12 7 10 12 8 11 13 12 17 20 21 25 26 20 15 11 12
6 6 7 8 9 9 10 10 10 11 11 11 11 11 11 11 10 10 10 10 9 8 7 5 2 3 5 5 5 6 6 6 7 9 8 6 5 5 4 3 2 2 3 3 4 3 0 2 4 5 7 6 4 3 3 1 2 3 1 3 4 1 1 2 4 4 3 1 3 8 13 13 8 8 11 8 8 12 12 14 19 21 24 28 27 22 17 15
5 5 6 6 7 8 8 9 9 10 11 11 12 11 11 11 11 10 10 9 9 8 7 7 5 2 4 6 7 7 6 7 9 10 10 8 6 6 5 4 2 1 2 3 3 3 1 3 4 6 9 6 4 4 3 1 1 2 2 4 3 1 2 4 6 6 7 4 2 6 12 12 9 8 10 9 8 10 13 14 14 21 27 29 30 28 24 20
4 4 5 5 6 6 7 7 8 9 10 11 11 12 12 12 12 11 10 10 9 9 8 7 6 4 2 5 7 8 7 8 10 11 10 9 7 7 6 4 3 1 1 3 3 3 3 3 3 7 8 4 3 5 3 2 2 2 3 3 1 2 3 4 6 7 9 8 4 5 8 10 11 11 11 8 7 10 16 21 20 24 28 28 29 29 28 25
6 5 5 5 5 6 6 7 7 8 9 10 11 12 12 12 12 13 12 11 10 10 9 8 7 5 3 4 5 7 7 4 5 9 11 10 9 8 7 6 4 2 2 3 3 3 5 4 3 7 6 3 3 4 3 2 2 3 3 2 1 3 3 2 4 7 9 8 6 6 7 8 9 13 15 12 11 12 13 20 24 24 24 25 26 27 28 29
7 7 6 6 6 6 6 7 8 8 8 9 10 11 12 12 12 13 12 12 11 11 10 9 7 6 5 3 4 6 7 3 1 7 10 11 9 8 8 7 6 4 3 4 4 4 5 4 3 7 4 2 4 3 2 4 3 3 3 2 3 6 4 3 3 6 9 8 7 7 7 7 8 10 14 19 24 21 16 18 19 18 20 23 24 25 28 30
9 8 8 7 7 7 7 7 8 8 9 9 10 10 11 12 12 13 13 12 12 12 11 11 9 7 5 4 4 6 11 11 6 7 9 11 11 9 9 8 8 6 5 5 5 5 5 4 2 6 4 1 3 3 1 4 5 4 3 3 4 7 8 7 5 6 7 9 9 7 7 8 9 8 8 20 33 31 26 26 23 20 18 20 22 25 28 29
11 10 10 9 9 8 8 8 8 9 9 9 10 10 11 11 12 13 13 13 13 13 12 12 10 8 6 5 4 6 12 14 11 11 11 12 13 11 10 9 9 8 7 6 6 6 5 4 1 4 4 1 4 5 3 3 6 6 4 2 3 6 9 10 10 10 8 11 11 7 8 9 11 8 8 25 37 32 31 31 28 26 22 21 22 24 27 29
13 13 12 11 10 10 10 9 9 9 9 10 10 11 12 12 12 13 14 14 14 13 13 13 12 10 7 6 5 6 9 9 8 10 11 12 14 14 12 11 9 9 8 8 7 7 6 3 3 2 4 2 5 5 4 3 4 5 3 1 3 5 7 9 10 11 10 11 10 8 10 9 9 8 14 29 32 27 27 28 29 30 28 27 26 26 27 29
15 15 15 14 13 12 11 11 10 10 10 10 10 11 12 12 12 13 14 14 15 14 14 14 14 12 9 7 4 4 6 6 6 8 9 11 13 15 14 12 11 10 9 9 8 7 6 5 5 4 3 4 5 4 4 3 1 2 2 4 7 8 8 8 8 8 9 10 10 10 10 7 4 4 11 16 12 12 14 17 23 26 29 30 29 29 28 30
16 16 16 16 16 15 14 13 12 11 11 11 11 11 12 13 13 13 14 14 15 15 16 16 15 13 11 8 7 7 8 8 7 7 8 10 13 15 15 14 12 11 10 10 9 8 7 7 6 3 2 3 4 3 4 4 2 1 3 6 8 8 10 11 9 8 7 7 8 8 9 7 1 5 18 18 10 10 9 12 17 20 25 27 29 30 30 31
18 18 18 18 18 17 17 16 14 13 12 12 12 12 13 14 14 14 15 15 16 16 17 16 14 12 11 10 13 12 12 11 10 10 10 11 12 15 15 15 13 11 10 10 9 9 7 7 6 4 2 3 2 2 3 3 2 2 2 5 6 6 8 8 6 5 6 5 4 3 7 9 8 14 28 25 18 17 13 14 17 19 22 24 27 29 30 32
19 19 19 19 19 19 19 19 18 16 14 13 13 13 14 15 16 15 16 16 17 17 18 16 13 11 10 10 14 14 12 12 12 12 12 12 13 13 15 15 13 12 11 10 9 8 7 6 6 4 2 3 1 2 2 1 2 2 1 3 5 6 5 5 3 3 6 4 3 2 8 8 12 22 29 22 20 19 15 18 20 21 23 24 26 28 30 32
21 20 20 20 20 20 20 20 21 20 18 16 15 14 15 16 17 17 17 18 18 17 18 16 12 10 10 11 13 14 13 14 13 13 13 13 13 12 13 14 13 12 11 10 9 8 7 6 5 4 3 2 2 2 2 1 1 1 1 1 3 4 2 4 3 5 6 4 6 4 8 10 7 15 19 17 19 18 16 18 21 24 24 25 27 29 31 32
23 22 22 21 21 21 21 22 22 23 22 20 18 17 16 17 18 18 18 19 18 18 17 15 12 10 10 13 14 13 13 14 14 13 12 13 12 11 12 13 12 12 10 9 8 7 6 5 5 3 1 3 3 2 3 2 1 0 3 3 2 3 2 2 5 6 4 3 7 6 6 12 11 5 10 14 17 18 18 17 20 26 26 27 29 30 32 33
25 25 24 24 23 23 23 23 24 24 24 23 21 20 18 19 20 19 19 20 18 18 16 14 13 9 8 11 12 12 12 12 12 11 11 12 12 11 11 11 11 10 9 8 7 6 5 4 4 3 3 3 2 3 4 4 3 2 3 5 3 4 4 1 4 4 2 2 7 9 7 10 9 2 7 10 13 16 17 18 22 27 29 30 31 32 34 34
27 27 27 26 25 25 25 25 25 25 26 25 24 23 21 21 22 21 20 19 18 17 15 12 10 7 9 11 11 12 12 11 10 10 10 10 11 11 11 11 10 9 7 6 6 5 4 3 3 3 2 1 1 2 3 6 6 2 2 4 4 5 5 4 2 4 3 3 7 11 10 15 15 9 9 11 12 15 18 22 27 31 33 34 34 35 36 36
29 29 29 29 28 27 27 27 27 27 27 27 26 25 24 23 23 23 20 18 16 12 11 10 6 4 8 13 13 11 10 10 10 11 10 10 11 12 12 11 9 8 5 4 5 5 5 3 2 3 2 3 3 4 6 7 6 4 4 5 5 5 7 7 4 2 5 4 7 9 11 18 20 19 21 19 17 18 22 28 31 32 35 35 35 38 38 38
28 29 30 30 30 29 29 29 29 29 29 28 28 27 27 25 23 21 16 13 11 7 6 7 8 4 5 8 11 11 11 11 11 12 12 12 12 12 12 11 9 8 5 3 5 6 5 3 2 4 5 7 8 9 11 8 4 5 5 5 7 6 8 8 2 2 3 4 9 13 14 18 20 20 22 22 18 20 25 29 31 29 29 32 35 39 39 40
25 26 27 28 28 28 28 29 30 30 30 30 30 28 22 15 11 11 10 12 14 13 12 11 12 14 15 15 16 15 15 15 15 14 13 12 12 11 12 10 8 8 6 3 3 5 4 3 6 10 9 8 10 12 10 4 1 3 3 4 8 8 10 8 2 4 2 4 11 14 15 19 21 19 22 22 15 18 25 26 28 28 27 32 36 38 38 39
24 24 24 24 24 23 23 24 25 26 27 28 28 24 16 8 6 7 10 14 17 18 20 21 21 23 25 24 22 21 18 15 16 16 14 13 12 9 10 10 7 6 5 3 4 4 4 5 12 13 7 3 5 7 5 2 2 4 5 5 7 8 9 6 1 3 3 3 9 11 13 18 20 18 21 21 13 18 28 26 27 28 27 34 38 37 35 35
24 24 24 24 23 21 20 21 22 22 21 22 22 19 14 13 12 12 12 13 19 23 22 23 25 26 28 26 26 28 21 13 15 19 17 15 16 11 8 9 7 4 3 5 4 3 3 10 14 6 5 5 2 3 6 6 5 4 4 4 6 6 6 5 1 3 4 4 6 8 11 16 20 19 21 24 19 21 28 28 30 30 28 33 34 33 32 31
23 23 25 25 24 21 20 21 21 20 19 18 17 14 12 12 11 13 11 8 15 23 23 23 25 27 28 28 28 28 22 15 15 19 20 17 18 15 10 9 6 2 4 8 8 5 5 9 7 3 8 7 2 3 6 4 4 6 4 5 8 3 2 5 0 3 4 4 6 9 11 14 17 17 18 22 21 20 24 26 30 32 33 34 28 26 27 28
22 22 24 25 24 21 19 20 19 19 19 15 13 12 10 9 9 10 10 6 8 14 20 22 22 26 27 26 25 23 21 19 15 15 20 21 19 13 11 8 5 4 6 10 10 9 10 4 5 7 5 7 4 4 7 6 5 6 7 9 10 5 5 6 2 3 5 4 3 8 12 11 10 10 10 8 7 12 16 19 24 31 37 37 29 25 27 27
22 22 22 24 24 20 18 19 18 18 16 12 9 9 7 6 6 7 6 5 5 7 14 17 17 22 24 22 21 17 14 17 18 14 15 22 22 11 6 7 7 8 7 8 8 10 11 3 7 5 3 6 6 5 8 8 5 5 8 12 13 8 6 4 3 5 6 3 1 4 10 8 5 7 5 1 2 6 7 9 18 28 31 31 28 26 26 26
20 21 21 23 23 19 17 15 14 14 10 8 8 8 7 5 4 4 4 4 4 4 5 8 10 11 13 14 15 12 5 9 16 17 15 19 24 14 5 6 5 4 5 7 5 5 4 1 3 4 5 6 7 7 7 8 6 5 4 7 10 8 5 3 0 2 5 4 0 2 7 9 3 6 5 3 4 6 5 7 14 23 26 26 26 24 22 22
19 19 19 20 20 18 14 11 13 11 6 7 7 7 7 7 4 1 2 5 6 6 6 7 8 8 9 9 14 12 2 3 8 15 19 19 21 16 8 6 4 2 5 5 3 2 2 3 3 4 6 6 7 7 6 10 6 3 1 1 4 5 5 4 4 5 5 4 2 3 5 11 9 7 8 6 7 7 10 12 14 20 25 25 26 24 21 21
19 19 19 19 18 15 11 11 12 9 7 7 7 10 8 8 6 3 1 6 3 7 6 6 7 9 10 12 19 12 2 3 4 9 19 19 18 14 9 8 4 4 6 5 5 2 2 5 6 8 7 7 7 2 6 12 6 1 2 3 4 4 3 4 4 5 3 4 5 7 8 9 10 6 6 5 8 9 13 16 15 17 20 21 22 22 19 18
19 19 20 20 18 14 11 10 8 8 9 8 10 11 10 10 6 4 2 6 1 5 4 7 8 8 9 11 16 12 2 1 1 6 14 15 16 9 4 6 4 4 4 4 5 1 2 3 5 7 7 7 4 3 2 9 5 3 5 5 6 5 4 3 3 3 2 5 7 8 11 7 11 5 8 2 6 10 12 13 12 13 16 18 20 16 13 16
19 19 20 20 18 15 12 9 7 9 10 10 11 12 13 10 4 1 7 5 1 2 4 7 7 7 11 8 7 9 4 1 2 9 9 7 12 7 1 4 4 3 2 3 5 1 3 2 0 4 5 2 5 5 3 1 3 7 7 4 4 3 3 1 1 1 4 7 7 11 17 12 10 2 9 6 6 10 10 9 10 11 14 19 19 14 12 15
20 20 21 20 18 15 12 9 8 9 12 13 12 15 14 6 2 6 9 2 1 1 4 4 3 6 11 6 2 5 4 2 5 10 6 4 8 6 3 5 4 2 2 4 6 2 3 3 1 3 5 5 6 4 5 4 3 5 4 2 1 1 2 2 1 2 6 7 2 6 12 15 12 4 6 5 5 9 10 9 9 8 11 18 19 15 14 15
21 21 22 21 19 16 12 9 9 10 14 16 16 17 10 2 5 7 3 3 0 4 4 3 3 4 7 3 1 4 2 2 7 8 5 4 6 7 7 6 5 3 4 6 5 2 3 5 3 2 5 7 5 4 4 2 2 4 4 4 3 3 2 3 3 4 6 6 1 2 3 9 14 10 5 5 4 9 10 8 9 7 11 19 21 16 15 16
22 22 23 24 21 17 12 9 9 12 16 18 19 13 5 4 8 5 4 3 2 2 2 2 2 4 5 3 3 3 1 2 5 5 3 2 4 6 6 4 2 2 3 4 3 2 3 1 5 4 3 10 12 7 5 4 6 9 7 6 5 4 2 5 5 3 5 4 2 4 2 6 11 8 10 14 13 13 13 15 18 15 14 19 19 17 17 18
25 24 25 26 23 18 14 11 10 15 19 21 17 8 3 9 8 3 7 9 2 2 2 3 3 4 4 3 2 3 3 3 5 5 3 3 4 6 7 8 6 3 1 2 2 4 5 5 8 9 4 12 17 10 2 5 7 8 5 4 5 4 5 6 4 4 6 5 2 4 3 5 5 1 7 13 14 17 19 23 25 21 19 18 15 16 19 20
28 27 27 27 26 23 18 13 12 17 23 23 12 3 6 11 6 2 5 6 2 1 2 2 3 5 4 2 1 2 5 3 4 5 4 6 6 6 6 8 10 5 2 3 2 3 6 7 5 4 3 12 12 4 4 6 5 4 2 1 4 4 5 4 3 2 3 6 4 5 5 7 3 0 2 1 5 14 18 19 19 20 26 23 17 19 21 22
30 30 29 29 32 28 20 15 14 20 27 21 7 5 10 11 4 2 3 3 4 4 5 1 2 4 5 3 2 4 3 2 3 4 5 6 6 5 3 3 10 12 9 7 2 3 4 4 3 4 1 4 1 2 2 1 3 4 3 5 2 1 2 4 2 1 1 6 7 4 7 9 4 4 6 7 6 9 9 12 13 19 30 27 23 27 27 26
33 33 32 34 37 31 22 19 17 23 27 17 8 9 9 7 4 4 2 2 3 5 6 5 5 6 6 4 5 6 4 2 4 5 4 3 4 7 6 4 10 16 17 12 4 4 5 3 2 4 1 1 3 3 2 3 1 4 4 5 3 2 1 2 3 1 2 7 7 6 13 14 8 5 5 9 10 8 8 11 10 15 23 22 27 36 36 32
38 37 37 40 40 33 26 22 21 26 24 11 12 15 6 4 5 5 5 5 3 4 6 7 5 6 6 5 3 6 7 5 6 5 5 4 4 7 9 6 9 17 24 20 7 3 3 3 2 1 1 3 2 1 3 2 2 1 2 1 1 2 3 3 2 4 6 6 6 12 18 15 10 6 4 8 12 11 12 12 9 11 14 16 28 39 38 35
39 33 31 38 40 33 26 23 25 26 18 7 11 12 5 5 6 6 10 9 3 4 7 8 5 3 5 5 2 4 8 7 7 6 6 5 4 6 10 8 8 15 24 22 10 2 3 4 3 1 3 2 2 4 6 5 2 1 2 2 1 2 3 3 2 2 5 6 7 14 18 13 5 5 6 9 12 12 11 10 10 12 14 20 30 37 36 34
38 23 19 31 34 31 28 26 25 20 11 8 11 8 4 4 5 10 16 13 5 4 7 7 6 6 5 4 1 3 7 6 6 6 5 6 5 4 9 9 4 6 14 15 8 2 3 3 4 1 2 1 4 6 9 9 8 6 5 6 5 2 1 2 2 1 3 5 6 9 13 12 1 7 5 6 7 9 10 9 9 11 17 27 34 36 36 34
35 13 10 21 24 28 32 25 17 12 6 8 10 9 6 4 4 8 13 15 10 5 4 4 6 8 7 5 3 3 5 5 6 6 4 6 6 4 10 15 8 7 7 5 6 4 3 4 5 3 3 5 6 5 4 3 4 7 8 9 9 7 4 3 5 3 2 5 7 6 10 14 4 6 2 2 3 5 7 8 7 9 20 31 35 36 33 31
24 8 10 18 20 32 35 19 11 11 6 9 10 7 6 6 5 4 7 11 9 5 3 3 4 7 7 6 3 3 5 4 6 7 5 6 9 6 10 18 16 14 10 4 5 6 3 2 4 6 6 4 2 0 1 2 1 2 5 5 6 7 7 8 7 3 2 4 6 3 7 13 4 6 2 2 3 4 8 9 6 10 22 29 31 32 29 27
18 12 14 17 24 38 32 9 8 11 7 13 14 9 9 7 3 2 5 7 7 4 4 4 4 6 8 5 3 4 7 7 7 7 4 4 9 10 9 15 17 12 6 3 2 3 3 1 5 5 4 1 2 3 1 0 1 3 5 5 6 8 9 7 3 1 2 6 7 3 5 13 4 4 1 2 2 4 9 12 9 10 19 24 24 27 27 27
17 15 15 20 33 42 26 6 8 12 9 12 13 13 14 8 5 8 6 7 8 5 4 6 5 7 8 4 4 7 8 7 8 7 7 6 6 7 10 20 20 9 6 6 6 9 7 3 5 4 4 4 3 3 3 2 4 5 5 7 9 11 10 4 2 0 4 14 14 6 8 14 5 3 2 2 2 3 5 8 9 10 16 21 24 26 26 27
12 9 14 27 43 41 21 8 8 9 11 14 13 15 13 8 11 18 13 9 11 7 3 5 4 3 5 2 4 8 8 9 10 6 7 8 2 1 6 19 23 15 10 8 9 13 9 4 7 8 8 9 10 10 5 4 6 5 4 10 14 15 16 9 4 5 10 16 15 9 12 16 10 8 8 5 5 5 4 5 9 13 18 21 24 24 24 27
10 5 6 18 35 37 25 16 9 4 8 14 11 10 13 10 10 14 13 12 16 14 5 2 1 1 3 4 7 10 10 12 9 3 4 6 1 2 2 12 19 14 6 5 10 11 4 3 11 14 14 14 15 17 7 6 7 7 7 14 16 18 20 12 7 11 10 6 8 13 19 18 16 20 21 15 9 8 6 5 8 16 22 24 25 24 26 32
10 6 6 9 17 22 20 18 14 6 6 11 6 5 13 16 10 8 11 13 17 17 8 3 4 5 6 9 11 13 14 13 8 7 13 11 5 2 2 4 11 9 4 2 6 7 1 4 12 16 20 19 19 24 15 6 9 9 9 14 15 16 19 15 16 17 7 3 9 20 23 20 16 20 27 24 17 11 9 11 12 16 21 22 23 26 31 37
11 7 15 20 13 7 10 18 20 15 11 10 8 7 13 17 13 10 12 11 12 14 9 6 11 15 17 17 14 12 15 13 10 13 17 15 9 3 2 1 4 6 4 1 1 3 2 6 11 14 19 21 20 23 22 14 11 9 9 12 14 16 20 22 25 19 9 8 16 19 22 20 16 21 28 23 15 10 11 17 20 20 20 17 19 28 36 38
15 10 13 22 17 11 20 31 30 22 18 14 10 10 14 18 19 16 12 6 6 12 14 11 14 21 24 23 17 14 13 12 12 13 12 12 11 6 3 5 4 2 4 2 1 3 2 5 12 14 16 19 19 22 24 21 16 13 11 9 11 18 22 23 21 17 17 22 20 14 19 21 18 22 22 16 17 17 17 24 29 29 30 27 26 34 39 38
17 13 8 13 16 14 21 29 24 16 17 17 13 12 15 20 21 18 13 12 10 10 14 18 21 21 22 23 20 17 17 16 17 16 11 11 11 7 6 7 4 2 2 2 1 2 4 8 13 13 12 15 20 24 25 21 19 18 15 11 16 24 24 20 18 16 18 21 19 14 15 17 18 20 16 15 23 23 20 26 30 35 40 35 30 35 38 37
22 22 18 13 9 9 12 14 13 11 12 14 14 14 16 20 22 18 16 21 22 14 14 22 26 22 18 17 15 16 22 24 24 26 25 20 13 9 8 7 7 5 3 4 3 2 5 8 10 9 10 12 17 22 21 16 12 10 11 19 28 27 21 20 22 18 14 15 18 16 13 14 18 17 13 15 21 20 19 21 26 35 38 29 25 33 38 38
20 24 25 18 6 6 9 8 9 12 11 12 16 19 18 22 24 19 15 17 24 29 27 23 20 16 12 12 17 27 37 38 37 40 40 31 17 13 14 13 14 12 7 6 5 5 6 8 8 8 9 11 16 19 12 5 3 5 13 26 31 25 21 24 24 20 17 15 15 14 13 15 17 15 15 18 19 19 20 21 27 34 32 25 28 35 38 41
Wind_Direction
13 12 9 9 9 8 4 1 358 358 357 357 358 357 357 2 8 16 22 21 16 20 31 38 209 215 217 213 211 209 209 217 224 220 211 193 186 180 162 127 95 81 70 66 66 70 175 182 207 219 222 214 217 212 172 132 147 173 218 240 244 239 215 187 191 190 320 5 163 180 190 203 198 188 202 216 216 220 229 223 222 225 226 230 230 226 231 224
7 8 6 6 7 7 4 1 358 356 355 354 355 353 352 351 356 2 7 12 11 7 9 14 5 233 224 222 228 225 225 234 238 230 219 206 202 198 178 144 113 79 59 51 51 50 196 247 242 210 197 198 214 211 197 162 155 191 211 249 248 231 208 190 207 205 213 218 152 186 195 209 214 178 192 216 213 208 224 228 224 231 233 234 234 229 233 227
355 359 360 1 2 4 2 360 358 356 355 353 352 351 350 347 347 352 355 357 0 2 356 355 356 310 240 233 236 232 240 258 258 243 221 211 214 210 194 175 160 95 37 27 34 39 5 281 261 195 181 188 204 192 193 225 210 193 204 253 245 203 269 233 229 223 218 219 138 189 195 209 226 187 188 217 222 206 220 222 209 227 236 237 237 232 231 228
337 342 345 351 354 355 355 356 356 355 353 352 351 350 349 346 343 344 347 347 345 350 350 347 347 339 278 247 241 237 253 273 266 246 218 210 218 218 210 203 199 190 353 358 2 2 355 320 237 185 181 183 191 193 210 249 230 184 213 272 66 128 257 236 232 228 223 229 213 184 184 212 226 205 199 207 230 230 228 228 222 234 242 240 241 236 231 228
320 324 332 338 342 346 347 349 350 351 351 350 349 347 346 345 342 340 341 342 339 339 343 344 341 338 317 267 247 239 248 277 256 225 212 211 219 221 219 221 226 247 308 331 335 331 345 346 190 179 184 179 176 197 211 220 221 196 221 288 86 177 241 262 237 230 225 223 209 180 178 210 211 209 213 204 228 244 235 238 241 245 249 248 250 243 232 227
311 316 323 330 334 340 340 343 347 348 349 348 346 344 343 342 341 339 338 340 338 333 335 338 334 329 323 285 257 236 228 247 212 200 208 214 221 224 225 228 233 249 276 303 320 316 334 348 191 183 183 177 187 207 189 195 212 232 228 214 217 218 242 278 240 239 228 208 198 194 206 211 197 220 223 217 233 245 247 254 257 253 248 251 253 245 234 229
303 310 315 322 327 331 335 339 342 345 348 347 344 341 338 339 339 337 337 338 336 332 330 332 331 323 320 298 266 241 235 248 253 229 228 227 229 230 231 234 235 244 258 281 303 299 313 342 209 185 180 169 195 202 181 206 212 248 253 181 230 235 237 259 261 265 238 214 217 211 225 214 206 234 229 231 242 246 251 258 261 258 253 252 249 243 239 235
299 303 307 313 319 323 327 330 334 340 343 343 342 340 336 336 336 335 335 336 334 330 325 325 326 317 312 299 271 256 250 257 259 250 248 240 237 235 234 238 239 245 251 267 289 290 299 328 315 187 197 218 183 184 178 224 209 224 252 183 230 246 242 255 262 271 256 234 236 225 234 226 221 245 255 252 255 256 257 258 259 258 255 252 249 245 240 235
298 300 303 307 310 314 317 321 326 329 334 339 339 338 334 334 335 334 333 333 332 328 325 322 320 312 304 294 274 262 261 267 264 252 250 244 238 233 235 240 242 244 249 261 275 284 287 302 324 269 242 203 173 179 180 229 216 206 239 215 235 250 252 260 259 263 259 244 240 234 242 238 235 259 268 263 264 265 261 257 254 253 252 251 249 247 242 237
293 296 299 302 304 308 309 312 316 319 325 328 331 333 331 331 333 334 332 332 329 327 323 318 316 309 298 288 262 256 275 279 272 256 249 244 235 232 236 240 244 245 250 261 267 281 279 276 313 304 241 188 180 193 191 223 269 201 249 273 259 258 259 259 252 249 253 252 242 241 254 256 244 253 263 263 259 260 255 246 247 247 249 250 248 246 244 240
286 291 294 298 301 302 303 305 306 309 313 317 321 323 323 323 326 328 328 327 326 325 322 317 314 304 292 276 236 247 283 279 269 262 250 244 237 235 239 240 245 247 249 258 263 275 276 271 298 314 224 194 196 214 219 230 276 307 294 279 259 260 262 246 243 245 240 256 245 243 267 266 223 226 245 247 247 255 248 240 245 244 247 248 247 245 242 240
280 284 288 292 295 298 299 300 299 300 302 305 309 311 314 314 316 320 320 320 320 320 318 316 313 300 289 272 252 263 281 274 266 262 252 249 245 241 243 243 246 250 250 257 263 269 277 272 278 301 261 219 217 228 222 215 266 312 315 289 264 267 266 224 219 231 211 245 246 234 270 239 195 229 245 246 250 257 252 249 251 248 247 247 245 243 241 240
274 278 281 285 288 292 294 296 296 296 295 297 300 302 305 305 308 312 312 313 314 316 316 314 311 298 285 271 270 278 278 270 266 261 252 250 250 247 245 244 246 249 250 254 261 264 273 271 263 278 252 211 234 242 209 163 269 280 150 293 285 276 263 180 156 186 190 226 179 181 280 247 196 225 244 249 250 252 248 249 252 251 248 246 245 242 241 239
271 272 275 278 282 285 288 291 293 293 293 294 295 296 299 300 303 305 306 308 310 312 311 308 305 294 277 271 281 283 275 272 267 260 256 251 249 249 244 244 245 247 251 254 259 262 269 269 253 256 238 200 181 193 217 177 234 275 191 239 267 271 260 131 147 173 181 199 164 175 274 273 239 219 233 250 250 247 244 244 249 251 250 248 247 244 242 239
271 271 272 273 276 279 282 285 287 290 291 292 294 296 297 297 299 302 303 304 306 306 304 301 297 287 273 274 280 280 273 269 266 263 260 253 248 245 241 241 241 244 250 252 256 261 264 257 240 235 184 177 169 196 246 239 176 263 264 246 199 242 265 137 168 188 202 158 167 198 257 273 281 225 211 242 246 242 243 243 247 251 252 250 249 247 244 241
272 272 272 272 273 275 278 281 283 285 287 289 293 294 297 299 299 302 302 303 302 297 295 291 284 275 269 278 277 271 267 262 264 268 261 253 246 240 238 237 238 242 246 252 257 257 251 240 229 214 193 192 191 229 271 264 229 175 246 267 246 237 279 250 158 182 234 143 185 222 255 275 279 202 186 224 236 239 244 250 252 255 255 252 251 250 247 242
271 272 272 273 274 275 276 278 280 282 284 286 288 290 294 296 297 301 302 300 294 288 286 281 276 270 261 266 265 260 259 257 261 265 258 252 242 236 234 231 233 237 240 250 248 230 223 219 215 215 194 178 201 216 263 266 253 205 189 257 258 242 270 274 169 136 167 205 222 223 240 261 263 261 252 243 244 244 248 256 259 260 259 255 253 251 248 244
270 271 272 272 273 274 275 277 279 280 281 284 287 289 292 294 298 301 299 291 283 280 280 262 239 258 257 247 246 247 248 250 257 262 254 245 237 233 230 228 230 228 221 234 224 203 202 192 209 246 201 189 196 191 227 253 264 265 241 253 269 245 243 253 246 145 151 200 241 229 235 255 262 268 268 262 254 247 251 260 262 259 258 256 253 251 249 245
271 271 271 272 273 274 275 276 277 278 279 282 284 288 292 297 299 297 290 275 258 252 264 224 194 219 274 253 245 248 252 255 262 262 251 240 234 227 223 222 222 212 193 203 199 178 186 182 193 246 232 210 201 203 228 249 268 274 268 264 271 263 255 256 217 133 177 222 244 242 245 258 264 268 270 266 254 248 253 259 261 258 254 253 252 250 248 246
274 274 274 274 274 275 276 276 276 277 278 279 282 286 292 300 303 297 283 260 247 249 258 248 237 253 267 269 263 259 260 263 266 261 250 240 227 218 216 211 209 209 205 204 176 153 178 218 232 240 235 213 207 214 234 275 311 266 265 253 255 257 266 267 127 115 161 241 251 248 252 262 266 267 271 268 249 249 257 254 255 255 251 252 253 251 247 248
278 278 278 277 276 277 278 277 278 278 279 279 281 284 285 282 281 289 287 278 269 262 260 261 260 259 261 262 261 260 261 264 266 256 248 233 208 202 208 199 196 211 200 136 109 131 162 226 241 242 235 202 207 208 213 214 190 233 243 254 257 249 263 273 99 124 155 223 257 256 261 264 264 265 270 265 238 240 253 254 257 259 256 257 256 253 250 251
279 280 280 279 278 279 280 281 281 282 283 281 279 280 276 270 270 275 284 287 279 270 264 262 259 257 260 258 256 258 255 258 261 249 238 217 201 201 193 190 205 214 151 124 137 168 195 240 246 234 112 103 91 159 196 212 204 218 228 252 262 256 278 283 101 111 159 227 267 275 276 271 267 262 261 259 247 244 250 252 258 262 262 261 258 254 250 250
279 279 280 280 280 282 282 282 283 284 284 281 278 276 272 272 269 272 275 275 280 276 267 260 257 256 258 255 253 252 243 241 250 244 234 212 198 202 193 191 208 190 163 186 196 193 212 247 253 115 124 149 131 144 183 203 205 212 205 234 250 244 295 270 248 103 186 230 285 291 281 270 264 259 253 254 255 256 255 254 257 259 261 260 257 256 252 249
281 281 282 281 282 285 284 283 284 284 282 279 275 268 266 266 258 268 273 262 277 275 264 256 251 252 252 251 250 243 234 235 238 237 227 207 191 194 203 199 190 207 216 201 199 220 237 239 90 98 154 181 178 169 188 208 216 216 213 229 246 245 237 247 343 337 243 219 278 295 286 266 240 235 244 248 254 261 257 255 256 255 258 261 257 254 254 252
285 283 285 284 284 289 288 285 282 281 280 276 264 250 246 247 243 264 279 269 257 257 260 250 240 245 244 243 241 230 228 235 234 228 213 202 192 180 186 188 195 228 214 174 186 237 250 213 114 120 148 176 195 205 200 208 221 229 222 226 242 257 253 248 18 337 284 246 208 332 308 286 180 179 222 233 247 261 245 238 251 252 254 260 258 250 250 252
289 288 288 286 287 291 291 287 279 278 275 261 246 227 221 216 225 271 289 278 248 206 224 217 213 226 226 229 220 202 219 245 233 224 206 201 198 188 174 171 194 242 166 144 184 242 251 147 128 163 162 170 210 234 201 187 217 245 224 219 233 245 253 249 205 269 277 280 356 30 306 288 213 174 190 186 234 255 240 231 251 256 254 257 259 251 245 247
294 294 293 291 292 297 296 282 272 271 252 240 228 195 196 188 172 346 327 281 247 174 155 177 184 188 198 202 178 168 224 222 201 206 198 196 195 194 206 183 170 206 151 143 208 219 148 125 126 168 172 182 218 241 184 167 208 245 96 129 185 199 214 205 205 237 271 316 300 183 238 277 269 209 194 198 217 246 256 253 259 260 256 256 259 254 247 246
294 296 299 298 300 306 302 280 267 253 222 218 192 173 170 162 147 83 280 273 244 132 140 167 169 184 188 176 173 178 297 152 158 193 189 188 186 188 222 217 181 164 168 189 218 214 118 160 174 169 177 205 217 238 158 173 206 263 84 74 107 128 159 166 206 247 280 322 270 195 185 266 273 195 168 207 213 230 249 249 252 256 255 255 255 254 249 243
291 293 297 298 304 310 306 288 261 231 214 191 171 170 153 147 140 77 230 259 216 120 140 163 166 182 169 161 188 211 258 159 197 172 173 183 186 182 232 217 165 138 174 231 240 268 63 187 189 167 183 212 192 53 134 191 200 133 126 93 87 85 84 126 233 258 269 274 251 192 166 243 277 175 138 163 206 219 239 242 245 253 256 255 253 252 239 226
286 289 290 293 300 305 307 298 262 232 205 178 172 165 145 141 137 197 232 246 244 117 117 157 174 169 156 152 207 223 220 240 128 142 152 177 188 183 149 157 131 137 179 284 264 244 83 87 316 202 206 165 109 76 32 57 125 138 144 112 101 109 95 120 243 254 265 261 234 195 181 210 272 189 148 167 181 198 219 232 240 252 258 253 248 241 217 208
279 281 281 286 293 296 302 295 263 231 193 176 163 152 144 131 115 226 232 257 8 159 123 163 181 155 166 170 200 190 188 215 157 158 163 164 180 178 155 150 134 165 214 253 249 221 144 177 216 213 180 117 102 94 60 61 123 155 155 146 176 209 148 170 179 158 245 258 216 192 191 203 240 239 157 164 170 197 213 221 226 233 244 241 237 229 211 200
273 273 275 278 282 287 293 284 259 218 187 171 158 153 147 179 235 224 225 46 127 192 153 175 179 175 192 206 225 162 155 202 176 179 183 162 184 189 195 196 164 183 231 221 223 196 194 205 162 150 175 169 158 118 101 99 174 194 170 162 224 261 255 243 218 184 234 252 113 113 186 215 241 253 218 194 203 222 226 224 224 222 229 230 225 222 212 202
269 267 266 268 274 279 280 274 250 208 184 166 159 151 125 241 234 199 167 188 208 174 134 140 150 169 170 169 207 168 150 219 170 180 191 154 204 213 233 249 185 252 253 187 199 204 226 252 142 164 211 191 188 183 191 188 179 189 178 171 208 223 233 250 239 230 254 253 141 126 156 243 260 263 224 213 214 222 224 223 230 232 228 225 221 216 211 208
266 262 259 262 269 268 261 258 231 198 181 166 161 140 129 235 236 142 186 209 214 65 80 79 119 162 181 193 208 166 200 220 150 168 198 161 201 220 228 228 210 258 333 159 213 191 237 272 173 172 169 172 189 207 188 118 156 188 180 174 216 206 211 245 257 268 283 294 211 162 182 241 258 285 217 215 216 222 227 227 232 238 233 227 221 212 209 216
263 259 252 253 257 255 252 247 217 192 179 168 164 158 205 230 234 159 203 199 168 92 69 50 123 166 221 250 292 226 230 227 139 156 196 187 205 210 202 206 193 178 150 197 224 163 241 273 162 137 117 156 179 216 86 100 152 179 100 176 235 217 208 249 300 289 310 311 262 187 214 244 230 201 198 147 217 223 228 230 231 238 237 232 231 223 218 224
258 252 244 241 245 248 246 234 209 188 179 171 169 216 221 239 235 160 204 164 161 148 115 107 164 177 232 222 210 224 218 222 157 168 208 211 235 226 189 201 186 182 188 191 187 169 231 277 115 94 39 145 141 1 91 137 186 152 158 200 213 353 219 229 268 72 94 278 266 211 251 266 259 227 175 151 208 214 213 227 223 230 236 235 238 238 233 234
254 247 239 235 238 242 235 224 207 188 180 173 195 220 228 248 207 164 179 124 135 140 145 206 197 177 213 214 203 189 162 195 182 180 204 199 235 210 185 226 193 188 204 204 213 228 221 266 174 148 160 129 23 26 80 359 25 139 189 197 130 45 318 234 254 268 224 258 270 265 269 274 269 257 159 164 212 212 205 224 221 228 235 235 238 242 243 243
252 244 239 237 235 235 227 214 199 186 177 175 220 226 227 217 184 152 155 154 146 158 180 224 206 171 203 216 198 163 163 185 166 174 208 194 224 188 164 205 198 194 209 209 222 258 195 240 242 124 47 103 89 190 147 51 12 97 265 249 138 205 184 168 216 238 240 249 272 277 278 275 257 236 151 179 210 214 216 221 218 225 228 229 236 240 244 245
246 234 234 236 232 229 223 206 193 185 176 182 225 228 227 213 197 170 177 178 171 185 206 232 225 202 211 202 160 151 180 191 162 174 211 196 215 180 161 189 200 202 207 199 204 240 173 230 244 35 352 87 126 222 190 173 161 41 290 236 272 268 194 179 184 204 241 245 269 281 281 278 245 156 169 202 204 203 211 213 213 219 218 223 232 237 240 241
234 222 236 236 228 223 211 192 184 182 184 209 222 228 231 225 226 217 210 203 187 194 217 229 218 222 221 195 170 178 198 213 186 190 215 195 212 207 178 185 184 201 202 193 207 233 106 230 232 92 341 221 188 201 196 194 179 174 202 190 189 209 86 289 252 179 235 241 248 267 273 275 277 114 168 208 191 193 197 202 210 214 220 226 231 236 238 240
226 221 241 224 216 207 191 176 177 190 205 227 232 240 238 246 259 234 223 220 223 229 229 221 215 225 225 211 216 184 191 222 205 206 226 203 219 235 190 194 177 133 147 178 224 215 157 208 215 183 206 223 222 203 197 226 187 179 192 186 190 183 148 222 234 197 199 239 236 237 263 270 264 97 131 171 149 185 182 194 209 209 222 229 233 236 236 238
221 227 226 203 195 189 179 170 191 199 205 224 234 252 236 238 255 233 213 218 229 249 249 237 227 230 231 223 215 172 182 213 206 209 231 214 220 226 191 191 176 143 138 166 209 198 152 155 210 223 226 225 251 135 177 301 312 210 225 205 192 183 180 207 219 204 176 231 249 243 266 268 258 85 81 165 153 182 179 190 199 200 218 229 233 232 233 238
210 224 220 204 195 185 176 172 206 198 218 230 235 251 236 232 267 235 202 205 217 222 224 234 217 224 237 227 193 187 197 214 209 197 216 233 227 231 202 175 164 149 150 174 178 156 110 133 212 239 266 275 67 92 137 242 145 202 235 213 194 201 204 209 224 232 196 222 231 194 245 263 273 85 189 213 150 184 190 201 203 200 219 231 232 230 236 241
216 217 201 197 195 185 179 183 198 201 223 227 233 246 241 242 248 239 218 193 206 207 216 238 233 228 233 202 191 213 201 211 224 202 207 239 235 225 198 175 168 173 198 191 171 165 167 190 195 209 255 251 235 204 186 184 196 217 226 201 202 212 209 221 323 308 243 240 230 208 243 256 262 103 184 179 172 224 220 215 215 213 221 230 234 235 240 241
224 210 186 189 191 190 195 212 201 207 217 219 229 233 235 247 246 244 243 224 223 218 212 248 261 248 234 195 225 231 206 216 237 218 209 236 259 33 198 186 183 194 214 208 179 169 175 196 181 192 224 226 233 237 215 153 186 215 216 196 200 205 202 206 217 208 234 239 224 215 245 255 267 274 256 217 184 214 234 218 222 231 230 231 234 236 239 240
211 194 186 185 193 204 222 231 229 236 210 215 227 225 227 238 247 245 238 233 235 230 224 276 319 279 237 220 242 246 231 229 240 261 246 240 231 26 252 204 202 209 226 222 187 170 162 209 193 205 223 221 234 247 240 116 161 200 201 194 198 205 204 201 213 222 226 229 216 227 241 252 269 275 271 261 236 227 238 233 222 230 236 236 235 236 243 247
210 176 171 178 199 217 234 239 242 250 212 208 203 198 220 228 240 236 212 219 228 220 217 248 219 224 236 226 236 247 242 235 230 241 249 246 235 278 339 222 223 234 275 274 199 170 122 229 211 220 230 231 242 250 245 179 177 199 197 195 201 206 205 208 225 225 193 113 238 239 242 251 261 266 269 269 264 259 264 265 252 246 250 247 240 244 251 254
231 200 190 198 205 201 216 229 230 227 220 212 200 209 225 227 230 225 211 216 218 199 195 221 216 221 232 230 232 245 244 241 233 231 240 245 240 240 14 321 233 226 223 262 207 173 190 233 225 229 239 241 246 253 254 243 221 214 205 204 206 205 204 212 226 226 190 208 241 244 250 258 259 256 260 266 273 277 276 275 273 271 267 254 246 254 258 258
243 244 211 209 213 197 199 210 215 216 215 213 210 216 226 228 229 227 216 205 214 201 199 215 220 219 226 228 228 236 238 237 239 233 233 241 235 214 218 240 235 198 189 173 178 186 187 239 237 238 247 249 249 253 255 254 253 248 235 216 214 220 217 217 229 231 219 229 243 256 262 263 259 257 260 274 287 288 286 283 281 276 269 261 258 263 264 264
245 257 255 225 224 222 213 210 211 214 212 212 215 213 221 230 232 231 217 199 211 209 197 217 231 225 223 225 225 231 233 232 243 245 232 229 227 210 213 220 196 128 170 178 223 203 197 232 241 244 252 249 246 248 249 250 256 258 257 254 245 242 238 232 237 236 229 239 251 261 266 264 259 260 266 278 281 282 282 278 274 270 269 267 266 267 269 269
255 265 279 276 247 224 225 217 210 216 211 207 216 217 221 229 228 231 230 216 216 217 200 212 228 230 230 228 221 230 234 229 235 240 235 233 225 206 214 205 170 168 193 191 197 181 201 234 242 244 253 247 243 248 250 248 253 260 259 251 246 247 246 242 242 237 229 241 249 250 252 252 253 259 263 266 268 267 266 265 262 264 269 272 268 266 269 269
272 274 276 285 287 199 221 231 213 219 218 204 212 217 220 227 225 227 239 226 219 227 226 220 224 230 235 229 219 227 231 230 233 238 241 246 242 214 215 205 179 183 194 191 195 185 192 222 232 230 243 247 247 253 258 250 244 235 233 238 241 245 247 247 247 243 232 233 243 247 246 248 255 259 257 256 255 253 253 255 260 266 272 275 268 265 268 270